Location: L�tisburg
(47.3947°N, 9.0820°E)
Time: 02:20:57
(UTC+00:00)

Cosmos 1707 Rocket - Visible Passes

Search period start: 17 June 2021 00:00
Search period end: 27 June 2021 00:00
Orbit: 605 x 631 km, 82.5° (Epoch: 16 June)

Date Brightness Start Highest point End Pass type
(mag) Time Alt. Az. Time Alt. Az. Time Alt. Az.
17 Jun 7.2 02:34:07 10° NE 02:35:13 11° ENE 02:36:19 10° ENE visible
21 Jun 6.9 02:04:31 10° NE 02:05:44 11° ENE 02:06:57 10° ENE visible
22 Jun 6.4 02:20:05 10° NNE 02:23:09 18° ENE 02:26:12 10° ESE visible
23 Jun 5.7 02:36:35 10° N 02:40:28 30° ENE 02:44:19 10° SE visible
25 Jun 6.7 01:34:55 10° NE 01:36:15 11° ENE 01:37:34 10° E visible
26 Jun 6.3 01:50:34 10° NNE 01:53:40 19° ENE 01:56:43 10° ESE visible
